Weather in Amstetten

Austria     48°07′29″N   14°52′09″E
temp.,
°C
wind,
m/s
gust,
m/s
humid.,
%
clouds,
%
prec.,
mm/h
press.,
hPa
HPBL,
m
21 april, wed
wed2123:00+3s22945 0.0 101835
02:00+1s22925 0.0 101839
05:00+1s22905 0.0 101830
08:00+5ssw12745 0.0 1018134
11:00+12nw23555 0.0 1016921
14:00+14nw45501 0.0 10141459
17:00+14nw34521 0.0 10131208
20:00+8ssw117717 0.3 101410
22 april, thu
thu2223:00+6s22880 0.2 101633
02:00+4sw229295 1.4 101723
05:00+3ssw22925 0.1 101727
08:00+7w138640 0.1 1018231
11:00+9wnw5883100 0.3 10191041
14:00+9wnw5887100 1.9 1019911
17:00+8nw4885100 1.6 1020994
20:00+5wsw24872 1.8 102183
23 april, fri
fri2323:00+3wsw118697 0.1 102410
02:00+2wsw2291100 0.1 102527
05:00+1wsw229288 0.0 102618
08:00+4w28815 0.0 1026491
11:00+8wnw610565 0.0 10261568
14:00+11wnw69465 0.0 10241790
17:00+11wnw58491 0.0 10241483
20:00+6wsw226763 0.0 102630
24 april, sat
sat2423:00+3ssw22775 0.0 102718
02:00+1ssw11855 0.0 102810
05:000ssw11903 0.0 102813
08:00+4wnw01724 0.0 1027224
11:00+9nw24554 0.0 10251008
14:00+12nw45495 0.0 10231319
17:00+12wnw464746 0.0 10221370
20:00+7wsw227323 0.0 102419
25 april, sun
sun2523:00+4nnw117883 0.0 102623
02:00+1ese11937 0.0 102710
05:000s11925 0.0 102710
08:00+4e11735 0.0 1027251
11:00+9ne22543 0.0 1026989
14:00+12ne22450 0.0 10231265
17:00+12ene33425 0.0 1021891
20:00+5e22720 0.0 102328